Location: Ailingen
(47.6833°N, 9.5000°E)
Time: 08:34:03
(UTC+00:00)

Cosmos 1464 Rocket - Pass Details

Date: 18 November 2025
Orbit: 950 x 1001 km, 82.9° (Epoch: 13 December)

Event Time Altitude Azimuth Distance (km) Brightness Sun altitude
Rises 17:40:48 0° 189° (S) 3,690 7.2 -19.8°
Reaches altitude 10° 17:43:20 10° 190° (S) 2,739 6.5 -20.2°
Maximum altitude 17:49:37 83° 278° (W) 991 4.0 -21.2°
Drops below altitude 10° 17:55:53 10° 8° (N) 2,722 6.2 -22.3°
Sets 17:58:23 0° 9° (N) 3,665 6.9 -22.7°
